Location: Catacaguana
(10.4120°N, 66.7591°W)
Time: 06:25:43
(UTC+00:00)

Cosmos 2369 Rocket - Pass Details

Date: 27 May 2022
Orbit: 830 x 851 km, 71.0° (Epoch: 26 June)

Event Time Altitude Azimuth Distance (km) Brightness Sun altitude
Rises 08:34:50 0° 329° (NNW) 3,362 5.3 -20.8°
Reaches altitude 10° 08:37:25 10° 321° (NW) 2,430 4.5 -20.2°
Maximum altitude 08:42:28 36° 256° (WSW) 1,286 2.6 -19.1°
Enters shadow 08:43:39 33° 230° (SW) 1,374 2.8 -18.9°
